Wind_Speed
50 51 52 52 52 52 52 52 52 51 50 50 50 50 49 48 47 46 44 43 42 40 39 38 36 33 31 30 28 27 26 25 24 23 22 22 22 22
51 51 51 52 52 52 51 51 51 50 49 49 48 48 48 47 46 45 43 42 40 39 37 35 33 31 30 29 27 27 26 24 23 22 22 21 21 21
50 50 50 50 50 50 50 49 49 49 48 47 47 46 45 45 44 42 41 39 38 36 35 33 31 30 29 27 26 26 25 23 22 21 21 21 21 21
49 49 49 49 48 48 48 48 48 48 47 46 45 44 43 42 41 40 38 37 36 35 33 31 30 29 28 27 26 25 24 23 22 22 21 21 22 22
47 47 46 46 46 46 46 46 47 46 45 44 43 42 40 39 38 37 36 35 34 32 31 30 29 28 27 26 26 25 24 24 23 23 22 22 22 22
45 45 45 45 45 45 45 45 44 44 43 42 41 40 38 38 36 35 34 34 32 30 30 29 28 28 27 27 26 25 25 24 24 24 23 23 23 24
44 44 44 44 44 44 43 43 43 42 41 40 39 38 36 35 34 34 33 32 31 29 29 28 28 27 27 27 26 26 25 25 25 25 25 25 25 26
43 43 43 43 43 43 42 42 41 40 39 38 37 36 34 34 33 32 31 30 29 29 28 28 28 28 27 27 27 26 26 26 26 26 26 26 27 27
43 43 43 43 43 42 41 40 39 38 38 37 35 34 33 32 31 31 30 29 29 29 28 28 28 27 27 27 27 27 27 28 28 28 29 29 29 29
42 42 42 42 41 40 39 37 37 36 35 33 32 32 31 31 31 30 29 29 29 29 29 28 28 28 28 28 28 28 29 29 30 30 30 31 31 32
41 41 41 40 39 37 36 35 34 33 32 31 31 30 30 30 30 29 28 28 28 28 28 28 28 28 28 29 29 30 30 31 31 31 32 32 33 34
40 39 38 38 37 35 34 33 32 31 30 30 29 29 28 28 27 27 27 27 28 28 28 29 29 29 29 30 31 31 32 32 33 33 33 34 34 35
39 38 37 36 34 33 33 32 31 30 29 28 28 28 27 27 27 27 27 28 28 28 29 30 30 30 31 31 32 33 33 34 34 34 35 36 36 37
37 36 35 33 32 32 32 31 31 29 28 28 27 27 26 26 27 27 28 28 29 29 30 30 31 31 32 32 33 34 34 35 36 36 37 38 38 39
35 34 33 32 31 31 30 29 28 28 27 26 26 27 27 27 27 27 28 29 30 30 31 31 32 33 33 34 34 35 36 36 37 38 38 39 39 40
34 32 31 30 30 30 29 28 27 27 27 27 26 26 26 27 27 28 29 30 31 31 32 33 33 34 35 35 36 37 37 38 38 38 39 40 40 41
32 31 31 30 29 29 28 28 27 27 27 27 27 27 28 29 29 30 31 32 33 33 33 34 34 35 35 36 37 38 38 38 39 39 40 40 42 42
31 31 30 30 29 29 28 28 28 27 27 28 28 29 30 31 32 32 33 33 33 34 34 34 35 35 36 37 38 39 39 39 40 40 40 41 42 43
31 31 30 30 29 29 29 29 29 29 29 29 30 31 32 32 33 33 34 34 34 35 35 36 36 36 37 38 39 40 40 40 40 41 41 42 43 44
31 30 30 30 30 30 29 29 30 30 30 31 32 33 33 34 34 34 34 35 35 36 36 37 37 37 38 38 39 41 41 41 42 42 43 43 43 44
31 31 31 31 31 30 30 31 31 32 32 33 33 34 34 34 34 35 35 35 36 36 37 37 37 37 38 38 39 41 42 42 42 42 43 43 43 44
32 32 31 31 31 31 31 32 32 33 33 33 34 34 34 34 35 35 36 36 36 37 37 38 38 38 38 39 40 41 42 43 43 43 44 44 44 44
33 32 32 31 32 32 32 32 33 33 34 34 34 34 34 35 35 35 36 36 36 37 37 38 38 39 39 40 41 42 44 45 45 46 46 46 45 44
Wind_Direction
281 282 284 285 286 287 288 288 288 288 288 288 287 287 286 285 285 285 285 285 285 285 286 285 285 283 282 281 280 279 278 278 277 276 274 271 269 266
282 284 286 287 287 288 288 288 288 288 287 287 287 286 286 285 285 285 285 285 285 285 284 284 282 280 279 278 277 277 277 276 276 274 272 270 268 266
284 285 286 287 287 287 288 287 287 287 287 286 286 285 285 285 285 284 284 284 284 284 283 281 279 277 277 276 276 276 275 274 274 272 270 269 268 268
284 285 286 286 286 287 287 288 288 288 287 287 287 286 285 284 284 284 284 283 283 282 280 278 276 275 275 273 274 274 274 272 272 271 269 269 269 269
284 285 286 286 287 287 288 288 288 288 287 286 286 285 284 284 284 283 282 282 281 279 277 275 274 274 272 272 273 272 272 272 271 270 269 269 268 268
284 284 285 286 288 288 289 289 288 287 286 286 285 284 284 283 282 281 281 281 280 276 274 273 273 273 272 272 272 271 271 271 271 270 270 269 269 269
283 285 286 287 288 288 289 289 288 287 286 285 285 285 283 283 282 281 280 279 277 274 273 273 273 273 272 272 272 271 271 271 271 270 270 270 271 271
284 284 286 287 287 288 288 288 287 286 285 285 284 283 283 282 281 280 279 277 274 273 273 272 272 272 272 272 271 271 272 272 271 271 271 271 271 271
283 285 286 287 287 287 288 287 286 284 283 283 283 282 281 280 279 278 277 275 273 272 272 272 273 272 272 272 272 272 272 273 273 272 272 272 272 272
283 284 285 286 287 287 287 287 286 285 284 282 281 281 280 280 278 277 275 274 273 273 273 273 273 273 272 272 272 273 274 274 274 274 273 273 273 272
283 284 284 285 285 285 285 285 285 284 282 281 281 280 279 278 277 276 275 274 274 274 274 274 274 274 274 273 274 275 276 276 276 275 275 274 274 273
281 282 283 283 283 283 284 284 283 282 281 281 280 279 278 277 276 276 276 275 276 276 277 276 276 276 276 276 277 277 277 277 277 277 276 275 275 274
280 281 281 281 281 281 282 281 281 280 280 279 278 277 276 276 276 276 276 277 278 278 278 278 278 278 278 279 279 279 279 279 278 278 277 276 275 275
278 279 279 279 278 279 280 279 279 278 277 276 276 275 275 276 277 277 277 278 279 279 280 279 279 280 280 281 280 280 281 281 280 279 278 277 276 275
276 276 277 276 277 278 278 278 277 275 275 274 275 275 276 277 278 279 280 280 281 281 281 281 281 281 281 282 282 282 282 282 281 280 279 278 277 276
274 274 274 274 276 277 276 274 274 273 274 274 276 277 277 278 280 281 282 282 282 283 283 283 283 283 283 283 283 283 283 283 282 281 281 280 278 278
270 271 272 273 274 273 272 272 272 272 273 274 276 277 279 280 282 283 283 284 284 284 284 284 285 285 285 285 284 284 284 283 283 283 283 282 281 280
268 269 269 270 270 270 270 271 271 272 274 275 277 279 281 282 283 284 284 284 284 284 284 285 285 285 286 285 285 285 285 285 285 284 283 283 282 281
266 267 267 267 268 269 269 270 271 273 274 276 279 280 282 283 283 284 284 285 285 285 285 286 286 286 287 287 286 286 286 286 286 285 284 284 283 282
264 265 266 266 267 268 268 270 272 274 276 278 280 281 282 283 284 284 285 285 286 286 287 287 288 288 287 287 287 287 287 287 287 287 286 285 284 283
262 264 265 265 266 267 268 270 273 275 277 279 281 282 283 283 284 284 285 286 287 287 288 288 289 289 288 288 288 288 289 289 289 288 287 286 285 285
260 262 263 264 266 268 269 271 273 275 277 278 281 282 283 284 284 284 285 286 287 288 289 289 289 289 290 290 290 290 290 290 290 290 288 287 286 285
259 261 262 264 266 268 270 272 274 275 277 279 280 281 283 284 284 285 286 287 288 289 289 290 290 291 291 291 291 291 291 291 291 291 290 289 288 286
Height
5738 5736 5735 5733 5731 5730 5728 5726 5725 5724 5723 5720 5717 5714 5712 5710 5708 5706 5704 5703 5701 5699 5698 5697 5696 5695 5694 5693 5692 5692 5692 5692 5691 5691 5691 5692 5692 5693
5726 5725 5723 5721 5720 5717 5715 5713 5711 5710 5709 5708 5705 5702 5700 5698 5696 5694 5693 5691 5690 5689 5687 5687 5686 5685 5685 5685 5684 5684 5684 5684 5684 5684 5684 5685 5686 5686
5714 5713 5711 5709 5707 5705 5703 5701 5699 5697 5696 5695 5692 5690 5688 5686 5684 5683 5681 5680 5680 5678 5678 5677 5677 5676 5676 5676 5676 5676 5676 5676 5676 5676 5677 5678 5678 5679
5703 5701 5699 5698 5696 5693 5691 5689 5687 5685 5684 5682 5680 5678 5676 5675 5673 5672 5671 5670 5669 5669 5668 5668 5667 5667 5668 5668 5668 5668 5668 5669 5669 5669 5670 5671 5671 5672
5691 5690 5688 5686 5684 5682 5680 5677 5675 5673 5672 5670 5669 5667 5665 5664 5663 5662 5661 5660 5660 5659 5659 5659 5659 5659 5659 5660 5660 5660 5661 5661 5661 5662 5662 5663 5664 5664
5680 5678 5676 5675 5673 5671 5668 5666 5664 5662 5660 5659 5658 5656 5655 5653 5653 5652 5651 5651 5650 5650 5650 5650 5651 5651 5651 5651 5652 5652 5653 5653 5654 5654 5655 5655 5656 5657
5668 5667 5665 5663 5661 5659 5657 5655 5653 5651 5650 5648 5647 5646 5645 5644 5643 5642 5642 5642 5641 5642 5642 5642 5642 5643 5643 5643 5644 5644 5645 5645 5646 5646 5647 5647 5648 5648
5657 5656 5654 5652 5650 5648 5646 5644 5643 5641 5639 5638 5637 5636 5635 5635 5634 5633 5633 5633 5633 5634 5634 5634 5634 5634 5635 5635 5635 5636 5636 5637 5637 5638 5638 5639 5639 5639
5646 5645 5643 5641 5640 5638 5636 5634 5632 5631 5629 5628 5627 5627 5626 5625 5625 5625 5625 5625 5625 5625 5625 5625 5626 5626 5626 5626 5627 5627 5628 5628 5628 5629 5629 5629 5630 5630
5635 5634 5632 5631 5629 5627 5625 5624 5622 5621 5620 5619 5618 5617 5617 5617 5616 5616 5616 5616 5616 5616 5617 5617 5617 5617 5617 5618 5618 5618 5618 5619 5619 5619 5619 5619 5619 5619
5624 5623 5622 5620 5619 5617 5616 5614 5613 5612 5611 5610 5609 5609 5608 5608 5608 5608 5608 5608 5608 5608 5608 5608 5608 5608 5608 5608 5609 5609 5609 5609 5609 5609 5608 5608 5608 5608
5614 5612 5611 5610 5609 5607 5606 5605 5604 5603 5602 5601 5601 5601 5600 5600 5600 5600 5600 5600 5600 5600 5600 5600 5600 5600 5600 5599 5599 5599 5599 5599 5598 5598 5598 5597 5597 5597
5603 5602 5601 5600 5599 5598 5597 5596 5595 5595 5594 5593 5593 5593 5592 5592 5592 5592 5592 5592 5592 5592 5591 5591 5591 5590 5590 5590 5589 5589 5588 5588 5587 5587 5586 5586 5585 5585
5593 5592 5591 5590 5590 5589 5588 5587 5587 5586 5586 5585 5585 5585 5585 5585 5584 5584 5584 5583 5583 5583 5582 5582 5581 5581 5580 5579 5579 5578 5577 5577 5576 5575 5574 5573 5573 5572
5582 5582 5582 5581 5580 5580 5579 5579 5578 5578 5578 5577 5577 5577 5577 5577 5576 5576 5575 5575 5574 5573 5573 5572 5571 5570 5570 5569 5567 5567 5566 5565 5564 5563 5561 5560 5559 5559
5572 5572 5572 5572 5571 5571 5571 5570 5570 5570 5570 5570 5569 5569 5569 5568 5568 5568 5567 5566 5565 5564 5563 5562 5561 5560 5559 5557 5556 5555 5554 5553 5551 5550 5549 5547 5546 5545
5562 5563 5563 5563 5563 5562 5562 5562 5562 5562 5562 5562 5561 5561 5561 5560 5559 5559 5558 5557 5556 5554 5553 5552 5550 5549 5547 5546 5544 5543 5541 5540 5539 5537 5535 5533 5532 5531
5553 5553 5553 5553 5554 5554 5554 5554 5553 5553 5553 5553 5553 5553 5552 5551 5550 5549 5548 5546 5545 5544 5542 5541 5539 5538 5536 5534 5533 5530 5529 5527 5526 5524 5522 5520 5517 5516
5543 5543 5544 5544 5544 5545 5545 5545 5545 5545 5545 5544 5544 5543 5542 5541 5540 5539 5537 5536 5534 5533 5531 5530 5528 5526 5524 5522 5520 5518 5516 5514 5512 5510 5509 5506 5504 5501
5533 5533 5534 5535 5535 5535 5536 5536 5536 5536 5535 5535 5534 5533 5532 5531 5529 5528 5526 5525 5523 5521 5520 5518 5516 5514 5512 5510 5507 5504 5502 5501 5499 5497 5494 5492 5490 5486
5523 5524 5524 5525 5525 5526 5526 5526 5526 5526 5526 5525 5524 5523 5521 5520 5518 5517 5515 5514 5512 5510 5508 5506 5504 5502 5500 5497 5495 5491 5488 5487 5485 5482 5480 5478 5475 5472
5513 5514 5514 5515 5515 5516 5516 5516 5516 5516 5515 5514 5513 5512 5510 5509 5507 5506 5504 5502 5500 5498 5496 5494 5491 5489 5487 5485 5482 5478 5475 5472 5470 5467 5465 5463 5460 5458
5502 5503 5504 5505 5505 5505 5506 5506 5505 5505 5504 5503 5502 5501 5499 5498 5496 5494 5493 5491 5489 5486 5484 5482 5479 5477 5474 5472 5469 5465 5461 5458 5455 5452 5449 5446 5444 5442